Weather History for Rockland, ME

Change the Weather History Date:

Tuesday, January 22, 2013

  Actual Average Record
Temperature  
Mean Temperature 14 °F -  
Max Temperature 19 °F 25 °F 42 °F (1997)
Min Temperature 8 °F 11 °F -11 °F (2005)
Degree Days  
Heating Degree Days 52    
Moisture  
Dew Point 4 °F    
Average Humidity 67    
Maximum Humidity 86    
Minimum Humidity 34    
Precipitation  
Precipitation 0.00 in - - ()
Sea Level Pressure  
Sea Level Pressure 29.84 in    
Wind  
Wind Speed 9 mph (NNW)    
Max Wind Speed 20 mph    
Max Gust Speed 26 mph    
Visibility 8 miles    
Events      
Averages and records for this station are not official NWS values.
T = Trace of Precipitation, MM = Missing Value Source: NWS Daily Summary

Daily Weather History Graph

Daily Weather History Graph

Search for Another Location

Airport:

Trip Planner

Search our weather history database for the weather conditions in past years. The results will help you decide how hot, cold, wet, or windy it might be!

Date:

Astronomy

Jan. 22, 2013 Rise Set
Actual Time 7:03 AM EST 4:33 PM EST
Civil Twilight 6:31 AM EST 5:04 PM EST
Nautical Twilight 5:56 AM EST 5:40 PM EST
Astronomical Twilight 5:22 AM EST 6:14 PM EST
Moon 12:52 PM EST (1/22) 3:23 AM EST (1/22)
Length of Visible Light 10h 33m
Length of Day
9h 30m
Waxing Gibbous, 82% of the Moon is Illuminated
Jan 22
Waxing Gibbous
Jan 26
Full
Feb 3
Last Quarter
Feb 10
New
Feb 17
First Quarter

Hourly Weather History & Observations

Time (EST) Temp. Windchill Dew Point Humidity Pressure Visibility Wind Dir Wind Speed Gust Speed Precip Events Conditions
12:15 AM 19.4 °F 7.2 °F 15.8 °F 86% 29.83 in 10.0 mi NE 11.5 mph - N/A   Mostly Cloudy
12:35 AM 19.4 °F 8.6 °F 15.8 °F 86% 29.83 in 10.0 mi NE 9.2 mph - N/A   Mostly Cloudy
12:55 AM 19.4 °F 7.2 °F 15.8 °F 86% 29.80 in 10.0 mi NNE 11.5 mph - N/A   Overcast
1:15 AM 19.4 °F 5.5 °F 15.8 °F 86% 29.78 in 10.0 mi NE 15.0 mph - N/A   Mostly Cloudy
1:35 AM 19.4 °F 6.6 °F 14.0 °F 80% 29.79 in 10.0 mi NNE 12.7 mph 18.4 mph N/A   Scattered Clouds
1:55 AM 19.4 °F 6.6 °F 12.2 °F 74% 29.79 in 10.0 mi NE 12.7 mph 19.6 mph N/A   Scattered Clouds
2:15 AM 19.4 °F 7.9 °F 12.2 °F 74% 29.79 in 10.0 mi NNE 10.4 mph 16.1 mph N/A   Mostly Cloudy
2:35 AM 19.4 °F 6.0 °F 12.2 °F 74% 29.76 in 10.0 mi NNE 13.8 mph 18.4 mph N/A   Scattered Clouds
2:55 AM 19.4 °F 7.9 °F 12.2 °F 74% 29.78 in 10.0 mi NNE 10.4 mph - N/A   Clear
3:15 AM 19.4 °F 7.9 °F 12.2 °F 74% 29.77 in 10.0 mi NNE 10.4 mph 16.1 mph N/A   Partly Cloudy
3:35 AM 19.4 °F 7.2 °F 12.2 °F 74% 29.77 in 10.0 mi NNE 11.5 mph 18.4 mph N/A   Clear
3:55 AM 19.4 °F 9.5 °F 10.4 °F 68% 29.76 in 10.0 mi NNE 8.1 mph - N/A   Clear
4:15 AM 19.4 °F 5.5 °F 10.4 °F 68% 29.76 in 10.0 mi NE 15.0 mph 20.7 mph N/A   Clear
4:35 AM 19.4 °F 7.2 °F 10.4 °F 68% 29.75 in 10.0 mi NNE 11.5 mph 19.6 mph N/A   Scattered Clouds
4:55 AM 17.6 °F 4.3 °F 12.2 °F 79% 29.75 in 7.0 mi NNE 12.7 mph 19.6 mph N/A   Mostly Cloudy
5:15 AM 17.6 °F 5.0 °F 10.4 °F 73% 29.75 in 8.0 mi NNE 11.5 mph 18.4 mph N/A   Scattered Clouds
5:35 AM 15.8 °F 2.1 °F 8.6 °F 73% 29.75 in 3.0 mi NNE 12.7 mph 20.7 mph N/A   Overcast
5:55 AM 15.8 °F 1.4 °F 10.4 °F 79% 29.74 in 3.0 mi NNE 13.8 mph 20.7 mph N/A   Mostly Cloudy
6:15 AM 15.8 °F 3.4 °F 8.6 °F 73% 29.74 in 10.0 mi North 10.4 mph 19.6 mph N/A   Clear
6:35 AM 15.8 °F 5.1 °F 6.8 °F 68% 29.75 in 10.0 mi NNE 8.1 mph 18.4 mph N/A   Clear
6:55 AM 15.8 °F 4.2 °F 3.2 °F 58% 29.75 in 10.0 mi North 9.2 mph - N/A   Mostly Cloudy
7:15 AM 14.0 °F 1.2 °F 3.2 °F 62% 29.75 in 10.0 mi North 10.4 mph 17.3 mph N/A   Overcast
7:35 AM 12.2 °F 1.7 °F 3.2 °F 67% 29.76 in 4.0 mi North 6.9 mph 17.3 mph N/A   Overcast
8:15 AM 12.2 °F 0.7 °F 1.4 °F 62% 29.78 in 8.0 mi North 8.1 mph 18.4 mph N/A   Overcast
8:35 AM 12.2 °F -0.2 °F 3.2 °F 67% 29.78 in 3.0 mi North 9.2 mph 16.1 mph N/A   Overcast
8:55 AM 12.2 °F 1.7 °F 3.2 °F 67% 29.78 in 5.0 mi North 6.9 mph 21.9 mph N/A   Overcast
9:15 AM 12.2 °F -0.2 °F 1.4 °F 62% 29.79 in 10.0 mi North 9.2 mph - N/A   Overcast
9:35 AM 12.2 °F 2.9 °F -0.4 °F 57% 29.78 in 10.0 mi NNW 5.8 mph - N/A   Overcast
9:55 AM 12.2 °F 1.7 °F -4.0 °F 48% 29.79 in 10.0 mi NNW 6.9 mph - N/A   Overcast
10:15 AM 12.2 °F 0.7 °F -2.2 °F 53% 29.81 in 10.0 mi NNW 8.1 mph - N/A   Overcast
10:35 AM 10.4 °F -1.5 °F 3.2 °F 73% 29.81 in 3.0 mi North 8.1 mph - N/A   Overcast
10:55 AM 10.4 °F 0.8 °F 3.2 °F 73% 29.80 in 2.0 mi North 5.8 mph - N/A   Overcast
11:15 AM 10.4 °F -1.5 °F 5.0 °F 79% 29.80 in 1.5 mi NNW 8.1 mph - N/A   Overcast
11:35 AM 10.4 °F -1.5 °F 6.8 °F 85% 29.80 in 1.8 mi NNW 8.1 mph - N/A   Overcast
11:55 AM 10.4 °F 0.8 °F 5.0 °F 79% 29.81 in 1.2 mi NNW 5.8 mph - N/A   Overcast
12:15 PM 10.4 °F 0.8 °F 6.8 °F 85% 29.80 in 1.5 mi North 5.8 mph - N/A   Overcast
12:35 PM 10.4 °F 2.2 °F 3.2 °F 73% 29.80 in 1.8 mi NNW 4.6 mph - N/A   Overcast
12:55 PM 10.4 °F 0.8 °F 6.8 °F 85% 29.80 in 4.0 mi North 5.8 mph - N/A   Mostly Cloudy
1:15 PM 10.4 °F -0.4 °F 5.0 °F 79% 29.80 in 7.0 mi North 6.9 mph - N/A   Clear
1:35 PM 12.2 °F 2.9 °F 5.0 °F 73% 29.81 in 10.0 mi NNW 5.8 mph - N/A   Clear
1:55 PM 12.2 °F 4.3 °F 6.8 °F 79% 29.82 in 10.0 mi NNE 4.6 mph - N/A   Clear
2:15 PM 12.2 °F 4.3 °F 5.0 °F 73% 29.83 in 10.0 mi North 4.6 mph - N/A   Clear
2:35 PM 14.0 °F 5.1 °F 6.8 °F 73% 29.83 in 10.0 mi NE 5.8 mph - N/A   Clear
2:55 PM 14.0 °F 8.2 °F 3.2 °F 62% 29.84 in 10.0 mi NNE 3.5 mph - N/A   Clear
3:15 PM 14.0 °F 8.2 °F 3.2 °F 62% 29.84 in 10.0 mi North 3.5 mph - N/A   Clear
3:35 PM 14.0 °F 8.2 °F 3.2 °F 62% 29.85 in 10.0 mi NE 3.5 mph - N/A   Clear
3:55 PM 14.0 °F 8.2 °F 1.4 °F 57% 29.86 in 10.0 mi NW 3.5 mph - N/A   Clear
4:15 PM 14.0 °F 8.2 °F 1.4 °F 57% 29.87 in 10.0 mi WNW 3.5 mph - N/A   Partly Cloudy
4:35 PM 12.2 °F 4.3 °F 1.4 °F 62% 29.88 in 10.0 mi WNW 4.6 mph - N/A   Partly Cloudy
4:55 PM 12.2 °F 6.1 °F 1.4 °F 62% 29.89 in 10.0 mi NW 3.5 mph - N/A   Clear
5:15 PM 10.4 °F 4.0 °F -0.4 °F 62% 29.89 in 10.0 mi NW 3.5 mph - N/A   Clear
5:35 PM 10.4 °F 2.2 °F 1.4 °F 67% 29.90 in 10.0 mi WNW 4.6 mph - N/A   Clear
5:55 PM 10.4 °F 4.0 °F 1.4 °F 67% 29.90 in 10.0 mi NW 3.5 mph - N/A   Clear
6:15 PM 10.4 °F 2.2 °F -0.4 °F 62% 29.91 in 10.0 mi NW 4.6 mph - N/A   Clear
6:35 PM 10.4 °F 2.2 °F -0.4 °F 62% 29.92 in 10.0 mi WNW 4.6 mph - N/A   Clear
6:55 PM 10.4 °F 4.0 °F -0.4 °F 62% 29.93 in 10.0 mi NNW 3.5 mph - N/A   Clear
7:15 PM 8.6 °F -1.3 °F -2.2 °F 62% 29.94 in 10.0 mi WNW 5.8 mph - N/A   Clear
7:35 PM 8.6 °F -1.3 °F 1.4 °F 73% 29.94 in 10.0 mi WNW 5.8 mph - N/A   Clear
7:55 PM 8.6 °F 0.1 °F 1.4 °F 73% 29.95 in 10.0 mi WNW 4.6 mph - N/A   Clear
8:15 PM 8.6 °F 0.1 °F -0.4 °F 67% 29.96 in 10.0 mi West 4.6 mph - N/A   Clear
8:35 PM 8.6 °F 0.1 °F -0.4 °F 67% 29.96 in 10.0 mi West 4.6 mph - N/A   Clear
8:55 PM 10.4 °F -1.5 °F -0.4 °F 62% 29.95 in 10.0 mi WNW 8.1 mph - N/A   Clear
9:15 PM 10.4 °F -1.5 °F -5.8 °F 48% 29.96 in 10.0 mi WNW 8.1 mph - N/A   Clear
9:35 PM 10.4 °F -1.5 °F -5.8 °F 48% 29.96 in 10.0 mi WNW 8.1 mph - N/A   Clear
9:55 PM 10.4 °F -0.4 °F -5.8 °F 48% 29.96 in 10.0 mi WNW 6.9 mph - N/A   Clear
10:15 PM 10.4 °F -3.3 °F -5.8 °F 48% 29.96 in 10.0 mi WNW 10.4 mph 19.6 mph N/A   Clear
10:35 PM 10.4 °F -4.8 °F -7.6 °F 44% 29.97 in 10.0 mi West 12.7 mph 17.3 mph N/A   Clear
11:15 PM 8.6 °F -9.5 °F -9.4 °F 44% 29.98 in 10.0 mi West 17.3 mph 25.3 mph N/A   Clear
11:35 PM 8.6 °F -10.5 °F -11.2 °F 40% 29.98 in 10.0 mi WNW 19.6 mph 26.5 mph N/A   Clear
11:55 PM 8.6 °F -9.5 °F -14.8 °F 34% 29.98 in 10.0 mi West 17.3 mph 26.5 mph N/A   Clear